Back to catalog

STARLINK-31397

AliveCommunicationsVLEO
NORAD 59540·PAYLOAD·🇺🇸 United States

Launched Apr 18, 2024 from Cape Canaveral Space Force Station

Loading…

Next Passes (next 24 hours)

TLE

FreshSource: CelesTrak SupGP

Epoch: Sep 14, 2026, 22:35 UTC

1 59540C 24074G   26257.94145833 -.00010770  00000+0 -39006-3 0  2573
2 59540  43.0039 354.9953 0001693 270.1589 132.8211 15.27584457    10

Track STARLINK-31397 in real time with AllMySat

Download on the App Store